Torna al catalogo

THORAD AGENA D DEB

AttivoLEO
NORAD 20360·DEBRIS·🇺🇸 United States

Lanciato Apr 8, 1970 da Vandenberg Space Force Base

Loading…

Prossimi Passaggi (prossime 24 ore)

TLE

AggiornatoSource: Space-Track

Epoca: Sep 13, 2026, 10:02 UTC

1 20360U 70025QF  26256.41805985  .00006119  00000-0  29470-2 0  9997
2 20360 100.4150 229.4858 0029364 356.5852 156.8076 14.18951474844991

Traccia THORAD AGENA D DEB in tempo reale con AllMySat

Download on the App Store